Location: Newark
(43.0000°N, 1.6781°W)
Time: 23:21:23
(UTC+00:00)

N. Korean satellite - Pass Details

Date: 07 December 2021
Orbit: 447 x 491 km, 97.3° (Epoch: 21 January)

Event Time Altitude Azimuth Distance (km) Brightness Sun altitude
Rises 04:58:52 0° 19° (NNE) 2,460 10.3 -25.8°
Reaches altitude 10° 05:01:00 10° 28° (NNE) 1,581 9.4 -25.4°
Maximum altitude 05:04:11 38° 98° (E) 697 7.8 -24.8°
Drops below altitude 10° 05:07:21 10° 169° (SSE) 1,571 9.4 -24.3°
Sets 05:09:27 0° 177° (S) 2,440 10.3 -23.9°
